Showing default

COSMOS 83, 1573

Orbit data source: Space-Track

COSMOS 83, 1573 is a payload satellite owned by OKB-10 (CIS) in LEO that was launched on Fri, 03 Sep 1965 UTC via a KOSMOS 65S3 launch vehicle from the Tyuratam Missile And Space Complex (TTMTR). Payload-class satellites include a variety of spacecraft equipped with specific instruments for various scientific and technological missions. These include communications satellites like Starlink; space stations such as the ISS; scientific satellites like the Hubble; Earth observation satellites from companies like Planet Labs, Umbra, and HawkEye 360; GPS; miniature CubeSats for education and research; and military/defense satellites.

Loading next visibility...
Identifier
1573, 1965-070D
Orbit
LEO
Last TLE update
7 hours ago
Origin
Manufacturer
OKB-10
Mission
Defense Communications
Bus & Motor
STRELA-1 11F610, Unknown motor
Mass
50 kg wet, 50 kg dry
Launch date (UTC)
1965-09-03 (60 years ago)
Launch vehicle
KOSMOS 65S3
Launch site
Tyuratam Missile And Space Complex (TTMTR)
Object type
Payload
Rocket body
Debris
Shape & HBR
Poly, 0.8 m
Radar Cross Section
0.731 m², Medium (>0.1 m² and < 1m²)

Expand to show TLE details & history

TLE from 7 hours ago
0 COSMOS 83
1 01573U 65070D   25128.93537135 -.00000072  00000-0  15141-3 0  9993
2 01573  56.0561 336.5639 0065340 259.6539  99.6992 12.41040112705027
Epoch: 2025-05-08T22:26Z
Definitive object data (Epoch: 2025-05-08T22:26:56.084Z)
Latitude
-0.0001°
Longitude
132.83142°
Altitude
1,512.248 km
Speed
7.106 km/s
True Right ascension
22h 26m 15s
True Declination
0° 00' 00"
Sunlit
Object was in daylight at TLE epoch
Visualization TLE readout
Latitude
-19.93603°
Longitude
-33.87198°
Altitude
1,478.889 km
Speed
7.137 km/s
Apparent Right ascension
08h 43m 33s
Apparent Declination
-58° 05' 42"
Sunlit
Object is in full shadow
Visualization observer readout
Local Sidereal Time
13:29:44
Azimuth
213.464° SW
Elevation
-24.608°
Doppler factor
1
Orbital elements
Apogee altitude
1,553.51 km
Perigee altitude
1,450.532 km
Semi-major axis
7,880.158 km
Eccentricity
0.006534
Inclination
56.0561°
RAAN
336.5639°
Arg. of periapsis
259.6539°
True anomaly
100.4362°
Mean anomaly
99.6992°
Eccentric anomaly
100.06781°
Mean motion
3.10271 °/min
BSTAR
0.00015141
Orbital period
116.03 mins
Loading maneuver chart data...
Loading SW <> Apogee altitude chart data...
Loading historical data...
Loading historical data...
Loading historical data...
Loading historical data...
Loading historical data...
Loading historical data...
Loading historical data...
Other satellites on launch #70 in the year 1965 (1965-09-03 UTC)

COSMOS 83 Visibility forecast

Observer location: undefined°, undefined°

Span
Click to sort rows by Start time (UTC) header in descending order
Start Az.
Max El. time (UTC)
Max El. Az.
Max El.
End time (UTC)
End Az.
11 mins2025-05-09 14:01:05.209Z151.129° SSE2025-05-09 14:06:05.209Z116.631° SE17.847°2025-05-09 14:12:05.209Z74.825° E
16 mins2025-05-09 15:59:05.209Z213.956° SW2025-05-09 16:06:05.209Z159.329° S44.117°2025-05-09 16:15:05.209Z47.862° ENE
16 mins2025-05-09 18:01:05.209Z268.34° W2025-05-09 18:09:05.209Z340.23° N33.649°2025-05-09 18:17:05.209Z42.063° NE
14 mins2025-05-09 20:06:05.209Z309.613° NW2025-05-09 20:13:05.209Z6.498° NNE25.983°2025-05-09 20:20:05.209Z57.879° ENE
16 mins2025-05-09 22:09:05.209Z321.916° NNW2025-05-09 22:16:05.209Z23.149° NE35.439°2025-05-09 22:25:05.209Z100.123° ESE
16 mins2025-05-10 00:11:05.209Z308.694° NW2025-05-10 00:18:05.209Z239.065° WSW42.81°2025-05-10 00:27:05.209Z151.179° SSE
7 mins2025-05-10 02:15:05.209Z269.69° W2025-05-10 02:18:05.209Z248.687° W14.466°2025-05-10 02:22:05.209Z221.295° SW
|